owner,sensor,date,latitude,longitude,vertical_datum,wind_speed,wind_to_direction,wind_speed_of_gust,qcFlag 
TCOON,ioos:station:TCOON:031:1,2008-11-01T00:00:00Z,28.4073,-96.7122,0.0,1.7,76.0,2.6,'11111222,11111222,11111222' 
TCOON,ioos:station:TCOON:031:1,2008-11-01T01:00:00Z,28.4073,-96.7122,0.0,1.7,77.0,2.5,'11111222,11111222,11111222' 
TCOON,ioos:station:TCOON:031:1,2008-11-01T03:00:00Z,28.4073,-96.7122,0.0,2.5,98.0,3.0,'11111222,11111222,11111222' 
TCOON,ioos:station:TCOON:031:1,2008-11-01T04:00:00Z,28.4073,-96.7122,0.0,2.7,89.0,2.9,'11111222,11111222,11111222' 
TCOON,ioos:station:TCOON:031:1,2008-11-01T05:00:00Z,28.4073,-96.7122,0.0,1.9,88.0,2.8,'11111222,11111222,11111222' 
TCOON,ioos:station:TCOON:031:1,2008-11-01T06:00:00Z,28.4073,-96.7122,0.0,2.0,85.0,2.6,'11111222,11111222,11111222' 
TCOON,ioos:station:TCOON:031:1,2008-11-01T07:00:00Z,28.4073,-96.7122,0.0,1.5,54.0,2.0,'11111222,11111222,11111222' 
TCOON,ioos:station:TCOON:031:1,2008-11-01T08:00:00Z,28.4073,-96.7122,0.0,1.8,53.0,2.4,'11111222,11111222,11111222' 
TCOON,ioos:station:TCOON:031:1,2008-11-01T09:00:00Z,28.4073,-96.7122,0.0,2.3,25.0,2.7,'11111222,11111222,11111222' 
TCOON,ioos:station:TCOON:031:1,2008-11-01T10:00:00Z,28.4073,-96.7122,0.0,2.4,22.0,2.9,'11111222,11111222,11111222' 
TCOON,ioos:station:TCOON:031:1,2008-11-01T11:00:00Z,28.4073,-96.7122,0.0,2.3,37.0,2.9,'11111222,11111222,11111222' 
TCOON,ioos:station:TCOON:031:1,2008-11-01T12:00:00Z,28.4073,-96.7122,0.0,2.2,45.0,3.0,'11111222,11111222,11111222' 
TCOON,ioos:station:TCOON:031:1,2008-11-01T13:00:00Z,28.4073,-96.7122,0.0,2.0,47.0,2.6,'11111222,11111222,11111222' 
TCOON,ioos:station:TCOON:031:1,2008-11-01T14:00:00Z,28.4073,-96.7122,0.0,2.1,61.0,2.8,'11111222,11111222,11111222' 
TCOON,ioos:station:TCOON:031:1,2008-11-01T15:00:00Z,28.4073,-96.7122,0.0,2.8,82.0,3.3,'11111222,11111222,11111222' 
TCOON,ioos:station:TCOON:031:1,2008-11-01T16:00:00Z,28.4073,-96.7122,0.0,2.0,130.0,3.6,'11111222,11111222,11111222' 
TCOON,ioos:station:TCOON:031:1,2008-11-01T17:00:00Z,28.4073,-96.7122,0.0,3.9,153.0,4.0,'11111222,11111222,11111222' 
TCOON,ioos:station:TCOON:031:1,2008-11-01T18:00:00Z,28.4073,-96.7122,0.0,4.3,151.0,4.6,'11111222,11111222,11111222' 
TCOON,ioos:station:TCOON:031:1,2008-11-01T19:00:00Z,28.4073,-96.7122,0.0,5.1,144.0,6.4,'11111222,11111222,11111222' 
TCOON,ioos:station:TCOON:031:1,2008-11-01T20:00:00Z,28.4073,-96.7122,0.0,5.1,142.0,6.2,'11111222,11111222,11111222' 
TCOON,ioos:station:TCOON:031:1,2008-11-01T21:00:00Z,28.4073,-96.7122,0.0,5.1,110.0,5.5,'11111222,11111222,11111222' 
TCOON,ioos:station:TCOON:031:1,2008-11-01T22:00:00Z,28.4073,-96.7122,0.0,4.0,132.0,4.8,'11111222,11111222,11111222' 
TCOON,ioos:station:TCOON:031:1,2008-11-01T23:00:00Z,28.4073,-96.7122,0.0,3.6,121.0,4.5,'11111222,11111222,11111222' 
TCOON,ioos:station:TCOON:031:1,2008-11-02T00:00:00Z,28.4073,-96.7122,0.0,2.8,113.0,3.3,'11111222,11111222,11111222' 
TCOON,ioos:station:TCOON:031:1,2008-11-02T01:00:00Z,28.4073,-96.7122,0.0,2.0,109.0,2.7,'11111222,11111222,11111222' 
TCOON,ioos:station:TCOON:031:1,2008-11-02T02:00:00Z,28.4073,-96.7122,0.0,1.8,102.0,2.6,'11111222,11111222,11111222' 
TCOON,ioos:station:TCOON:031:1,2008-11-02T03:00:00Z,28.4073,-96.7122,0.0,1.7,97.0,2.4,'11111222,11111222,11111222' 
TCOON,ioos:station:TCOON:031:1,2008-11-02T04:00:00Z,28.4073,-96.7122,0.0,2.5,99.0,2.8,'11111222,11111222,11111222' 
TCOON,ioos:station:TCOON:031:1,2008-11-02T05:00:00Z,28.4073,-96.7122,0.0,1.7,85.0,1.9,'11111222,11111222,11111222' 
TCOON,ioos:station:TCOON:031:1,2008-11-02T06:00:00Z,28.4073,-96.7122,0.0,2.2,80.0,2.4,'11111222,11111222,11111222' 
TCOON,ioos:station:TCOON:031:1,2008-11-02T07:00:00Z,28.4073,-96.7122,0.0,1.4,87.0,1.7,'11111222,11111222,11111222' 
TCOON,ioos:station:TCOON:031:1,2008-11-02T08:00:00Z,28.4073,-96.7122,0.0,1.6,69.0,1.9,'11111222,11111222,11111222' 
TCOON,ioos:station:TCOON:031:1,2008-11-02T09:00:00Z,28.4073,-96.7122,0.0,1.9,62.0,2.2,'11111222,11111222,11111222' 
TCOON,ioos:station:TCOON:031:1,2008-11-02T10:00:00Z,28.4073,-96.7122,0.0,1.6,61.0,2.1,'11111222,11111222,11111222' 
TCOON,ioos:station:TCOON:031:1,2008-11-02T11:00:00Z,28.4073,-96.7122,0.0,1.8,48.0,2.2,'11111222,11111222,11111222' 
TCOON,ioos:station:TCOON:031:1,2008-11-02T12:00:00Z,28.4073,-96.7122,0.0,1.7,39.0,2.1,'11111222,11111222,11111222' 
TCOON,ioos:station:TCOON:031:1,2008-11-02T13:00:00Z,28.4073,-96.7122,0.0,1.5,49.0,1.9,'11111222,11111222,11111222' 
TCOON,ioos:station:TCOON:031:1,2008-11-02T14:00:00Z,28.4073,-96.7122,0.0,1.7,42.0,2.8,'11111222,11111222,11111222' 
TCOON,ioos:station:TCOON:031:1,2008-11-02T15:00:00Z,28.4073,-96.7122,0.0,2.6,59.0,3.4,'11111222,11111222,11111222' 
TCOON,ioos:station:TCOON:031:1,2008-11-02T16:00:00Z,28.4073,-96.7122,0.0,1.7,175.0,1.8,'11111222,11111222,11111222' 
TCOON,ioos:station:TCOON:031:1,2008-11-02T17:00:00Z,28.4073,-96.7122,0.0,3.7,164.0,4.0,'11111222,11111222,11111222' 
TCOON,ioos:station:TCOON:031:1,2008-11-02T18:00:00Z,28.4073,-96.7122,0.0,3.8,160.0,5.0,'11111222,11111222,11111222' 
TCOON,ioos:station:TCOON:031:1,2008-11-02T19:00:00Z,28.4073,-96.7122,0.0,4.4,120.0,6.7,'11111222,11111222,11111222' 
TCOON,ioos:station:TCOON:031:1,2008-11-02T20:00:00Z,28.4073,-96.7122,0.0,5.7,116.0,7.1,'11111222,11111222,11111222' 
TCOON,ioos:station:TCOON:031:1,2008-11-02T21:00:00Z,28.4073,-96.7122,0.0,5.9,99.0,6.7,'11111222,11111222,11111222' 
TCOON,ioos:station:TCOON:031:1,2008-11-02T22:00:00Z,28.4073,-96.7122,0.0,4.7,111.0,7.1,'11111222,11111222,11111222' 
TCOON,ioos:station:TCOON:031:1,2008-11-02T23:00:00Z,28.4073,-96.7122,0.0,4.8,98.0,6.0,'11111222,11111222,11111222' 
TCOON,ioos:station:TCOON:031:1,2008-11-03T00:00:00Z,28.4073,-96.7122,0.0,2.3,84.0,3.4,'11111222,11111222,11111222' 
TCOON,ioos:station:TCOON:031:1,2008-11-03T01:00:00Z,28.4073,-96.7122,0.0,2.2,81.0,3.0,'11111222,11111222,11111222' 
TCOON,ioos:station:TCOON:031:1,2008-11-03T02:00:00Z,28.4073,-96.7122,0.0,2.3,82.0,2.6,'11111222,11111222,11111222' 
TCOON,ioos:station:TCOON:031:1,2008-11-03T03:00:00Z,28.4073,-96.7122,0.0,1.5,82.0,2.1,'11111222,11111222,11111222' 
TCOON,ioos:station:TCOON:031:1,2008-11-03T04:00:00Z,28.4073,-96.7122,0.0,1.8,87.0,2.5,'11111222,11111222,11111222' 
TCOON,ioos:station:TCOON:031:1,2008-11-03T05:00:00Z,28.4073,-96.7122,0.0,1.4,43.0,1.9,'11111222,11111222,11111222' 
TCOON,ioos:station:TCOON:031:1,2008-11-03T06:00:00Z,28.4073,-96.7122,0.0,1.7,63.0,2.1,'11111222,11111222,11111222' 
TCOON,ioos:station:TCOON:031:1,2008-11-03T07:00:00Z,28.4073,-96.7122,0.0,1.9,44.0,2.3,'11111222,11111222,11111222' 
TCOON,ioos:station:TCOON:031:1,2008-11-03T08:00:00Z,28.4073,-96.7122,0.0,2.1,62.0,2.5,'11111222,11111222,11111222' 
TCOON,ioos:station:TCOON:031:1,2008-11-03T09:00:00Z,28.4073,-96.7122,0.0,2.4,66.0,2.8,'11111222,11111222,11111222' 
TCOON,ioos:station:TCOON:031:1,2008-11-03T10:00:00Z,28.4073,-96.7122,0.0,2.4,65.0,2.9,'11111222,11111222,11111222' 
TCOON,ioos:station:TCOON:031:1,2008-11-03T11:00:00Z,28.4073,-96.7122,0.0,2.1,63.0,2.4,'11111222,11111222,11111222' 
TCOON,ioos:station:TCOON:031:1,2008-11-03T12:00:00Z,28.4073,-96.7122,0.0,2.3,62.0,2.8,'11111222,11111222,11111222' 
TCOON,ioos:station:TCOON:031:1,2008-11-03T13:00:00Z,28.4073,-96.7122,0.0,2.0,65.0,2.5,'11111222,11111222,11111222' 
TCOON,ioos:station:TCOON:031:1,2008-11-03T14:00:00Z,28.4073,-96.7122,0.0,1.9,80.0,3.3,'11111222,11111222,11111222' 
TCOON,ioos:station:TCOON:031:1,2008-11-03T15:00:00Z,28.4073,-96.7122,0.0,5.4,93.0,6.6,'11111222,11111222,11111222' 
TCOON,ioos:station:TCOON:031:1,2008-11-03T16:00:00Z,28.4073,-96.7122,0.0,5.4,117.0,7.8,'11111222,11111222,11111222' 
TCOON,ioos:station:TCOON:031:1,2008-11-03T17:00:00Z,28.4073,-96.7122,0.0,4.8,102.0,7.5,'11111222,11111222,11111222' 
TCOON,ioos:station:TCOON:031:1,2008-11-03T18:00:00Z,28.4073,-96.7122,0.0,6.6,114.0,8.7,'11111222,11111222,11111222' 
TCOON,ioos:station:TCOON:031:1,2008-11-03T19:00:00Z,28.4073,-96.7122,0.0,6.1,117.0,7.9,'11111222,11111222,11111222' 
TCOON,ioos:station:TCOON:031:1,2008-11-03T20:00:00Z,28.4073,-96.7122,0.0,6.4,120.0,8.7,'11111222,11111222,11111222' 
TCOON,ioos:station:TCOON:031:1,2008-11-03T21:00:00Z,28.4073,-96.7122,0.0,6.2,104.0,7.7,'11111222,11111222,11111222' 
TCOON,ioos:station:TCOON:031:1,2008-11-03T22:00:00Z,28.4073,-96.7122,0.0,6.7,93.0,8.4,'11111222,11111222,11111222' 
TCOON,ioos:station:TCOON:031:1,2008-11-03T23:00:00Z,28.4073,-96.7122,0.0,5.6,90.0,7.0,'11111222,11111222,11111222' 
TCOON,ioos:station:TCOON:031:1,2008-11-04T00:00:00Z,28.4073,-96.7122,0.0,3.3,90.0,4.5,'11111222,11111222,11111222' 
TCOON,ioos:station:TCOON:031:1,2008-11-04T01:00:00Z,28.4073,-96.7122,0.0,2.4,79.0,3.0,'11111222,11111222,11111222' 
TCOON,ioos:station:TCOON:031:1,2008-11-04T02:00:00Z,28.4073,-96.7122,0.0,2.1,78.0,3.4,'11111222,11111222,11111222' 
TCOON,ioos:station:TCOON:031:1,2008-11-04T03:00:00Z,28.4073,-96.7122,0.0,1.9,81.0,2.9,'11111222,11111222,11111222' 
TCOON,ioos:station:TCOON:031:1,2008-11-04T04:00:00Z,28.4073,-96.7122,0.0,1.8,77.0,2.9,'11111222,11111222,11111222' 
TCOON,ioos:station:TCOON:031:1,2008-11-04T05:00:00Z,28.4073,-96.7122,0.0,2.3,90.0,2.9,'11111222,11111222,11111222' 
TCOON,ioos:station:TCOON:031:1,2008-11-04T06:00:00Z,28.4073,-96.7122,0.0,4.4,99.0,5.6,'11111222,11111222,11111222' 
TCOON,ioos:station:TCOON:031:1,2008-11-04T07:00:00Z,28.4073,-96.7122,0.0,3.3,97.0,4.5,'11111222,11111222,11111222' 
TCOON,ioos:station:TCOON:031:1,2008-11-04T08:00:00Z,28.4073,-96.7122,0.0,2.4,94.0,3.1,'11111222,11111222,11111222' 
TCOON,ioos:station:TCOON:031:1,2008-11-04T09:00:00Z,28.4073,-96.7122,0.0,2.4,94.0,3.2,'11111222,11111222,11111222' 
TCOON,ioos:station:TCOON:031:1,2008-11-04T10:00:00Z,28.4073,-96.7122,0.0,2.1,97.0,2.7,'11111222,11111222,11111222' 
TCOON,ioos:station:TCOON:031:1,2008-11-04T11:00:00Z,28.4073,-96.7122,0.0,1.8,86.0,2.5,'11111222,11111222,11111222' 
TCOON,ioos:station:TCOON:031:1,2008-11-04T12:00:00Z,28.4073,-96.7122,0.0,1.9,78.0,2.4,'11111222,11111222,11111222' 
TCOON,ioos:station:TCOON:031:1,2008-11-04T13:00:00Z,28.4073,-96.7122,0.0,2.0,79.0,2.8,'11111222,11111222,11111222' 
TCOON,ioos:station:TCOON:031:1,2008-11-04T14:00:00Z,28.4073,-96.7122,0.0,2.1,91.0,2.9,'11111222,11111222,11111222' 
TCOON,ioos:station:TCOON:031:1,2008-11-04T15:00:00Z,28.4073,-96.7122,0.0,5.4,108.0,6.8,'11111222,11111222,11111222' 
TCOON,ioos:station:TCOON:031:1,2008-11-04T16:00:00Z,28.4073,-96.7122,0.0,5.9,118.0,7.0,'11111222,11111222,11111222' 
TCOON,ioos:station:TCOON:031:1,2008-11-04T17:00:00Z,28.4073,-96.7122,0.0,5.4,137.0,8.3,'11111222,11111222,11111222' 
TCOON,ioos:station:TCOON:031:1,2008-11-04T18:00:00Z,28.4073,-96.7122,0.0,7.5,128.0,9.5,'11111222,11111222,11111222' 
TCOON,ioos:station:TCOON:031:1,2008-11-04T19:00:00Z,28.4073,-96.7122,0.0,7.2,128.0,9.8,'11111222,11111222,11111222' 
TCOON,ioos:station:TCOON:031:1,2008-11-04T20:00:00Z,28.4073,-96.7122,0.0,6.6,121.0,8.6,'11111222,11111222,11111222' 
TCOON,ioos:station:TCOON:031:1,2008-11-04T21:00:00Z,28.4073,-96.7122,0.0,6.4,125.0,9.1,'11111222,11111222,11111222' 
TCOON,ioos:station:TCOON:031:1,2008-11-04T22:00:00Z,28.4073,-96.7122,0.0,6.9,106.0,8.7,'11111222,11111222,11111222' 
TCOON,ioos:station:TCOON:031:1,2008-11-04T23:00:00Z,28.4073,-96.7122,0.0,7.4,120.0,9.0,'11111222,11111222,11111222' 
TCOON,ioos:station:TCOON:031:1,2008-11-05T00:00:00Z,28.4073,-96.7122,0.0,4.9,114.0,5.7,'11111222,11111222,11111222' 
TCOON,ioos:station:TCOON:031:1,2008-11-05T01:00:00Z,28.4073,-96.7122,0.0,3.5,112.0,4.8,'11111222,11111222,11111222' 
TCOON,ioos:station:TCOON:031:1,2008-11-05T02:00:00Z,28.4073,-96.7122,0.0,3.9,117.0,5.2,'11111222,11111222,11111222' 
TCOON,ioos:station:TCOON:031:1,2008-11-05T03:00:00Z,28.4073,-96.7122,0.0,4.3,111.0,5.4,'11111222,11111222,11111222' 
TCOON,ioos:station:TCOON:031:1,2008-11-05T04:00:00Z,28.4073,-96.7122,0.0,4.3,120.0,5.5,'11111222,11111222,11111222' 
TCOON,ioos:station:TCOON:031:1,2008-11-05T05:00:00Z,28.4073,-96.7122,0.0,4.0,121.0,4.9,'11111222,11111222,11111222' 
TCOON,ioos:station:TCOON:031:1,2008-11-05T06:00:00Z,28.4073,-96.7122,0.0,4.5,120.0,5.2,'11111222,11111222,11111222' 
TCOON,ioos:station:TCOON:031:1,2008-11-05T07:00:00Z,28.4073,-96.7122,0.0,4.4,120.0,6.0,'11111222,11111222,11111222' 
TCOON,ioos:station:TCOON:031:1,2008-11-05T08:00:00Z,28.4073,-96.7122,0.0,4.4,118.0,5.0,'11111222,11111222,11111222' 
TCOON,ioos:station:TCOON:031:1,2008-11-05T09:00:00Z,28.4073,-96.7122,0.0,4.7,121.0,5.4,'11111222,11111222,11111222' 
TCOON,ioos:station:TCOON:031:1,2008-11-05T10:00:00Z,28.4073,-96.7122,0.0,5.2,121.0,6.5,'11111222,11111222,11111222' 
TCOON,ioos:station:TCOON:031:1,2008-11-05T11:00:00Z,28.4073,-96.7122,0.0,4.8,123.0,6.1,'11111222,11111222,11111222' 
TCOON,ioos:station:TCOON:031:1,2008-11-05T12:00:00Z,28.4073,-96.7122,0.0,5.5,127.0,6.9,'11111222,11111222,11111222' 
TCOON,ioos:station:TCOON:031:1,2008-11-05T13:00:00Z,28.4073,-96.7122,0.0,5.2,127.0,6.4,'11111222,11111222,11111222' 
TCOON,ioos:station:TCOON:031:1,2008-11-05T14:00:00Z,28.4073,-96.7122,0.0,6.6,135.0,8.4,'11111222,11111222,11111222' 
TCOON,ioos:station:TCOON:031:1,2008-11-05T15:00:00Z,28.4073,-96.7122,0.0,5.8,141.0,6.3,'11111222,11111222,11111222' 
TCOON,ioos:station:TCOON:031:1,2008-11-05T16:00:00Z,28.4073,-96.7122,0.0,7.2,142.0,8.5,'11111222,11111222,11111222' 
TCOON,ioos:station:TCOON:031:1,2008-11-05T17:00:00Z,28.4073,-96.7122,0.0,7.7,145.0,9.3,'11111222,11111222,11111222' 
TCOON,ioos:station:TCOON:031:1,2008-11-05T18:00:00Z,28.4073,-96.7122,0.0,8.4,140.0,9.5,'11111222,11111222,11111222' 
TCOON,ioos:station:TCOON:031:1,2008-11-05T19:00:00Z,28.4073,-96.7122,0.0,8.6,143.0,9.2,'11111222,11111222,11111222' 
TCOON,ioos:station:TCOON:031:1,2008-11-05T20:00:00Z,28.4073,-96.7122,0.0,9.1,141.0,10.2,'11111222,11111222,11111222' 
TCOON,ioos:station:TCOON:031:1,2008-11-05T21:00:00Z,28.4073,-96.7122,0.0,10.4,127.0,12.2,'11111222,11111222,11111222' 
TCOON,ioos:station:TCOON:031:1,2008-11-05T22:00:00Z,28.4073,-96.7122,0.0,9.4,128.0,10.7,'11111222,11111222,11111222' 
TCOON,ioos:station:TCOON:031:1,2008-11-05T23:00:00Z,28.4073,-96.7122,0.0,8.5,123.0,10.2,'11111222,11111222,11111222' 
TCOON,ioos:station:TCOON:031:1,2008-11-06T00:00:00Z,28.4073,-96.7122,0.0,6.9,119.0,7.6,'11111222,11111222,11111222' 
TCOON,ioos:station:TCOON:031:1,2008-11-06T01:00:00Z,28.4073,-96.7122,0.0,5.6,121.0,7.8,'11111222,11111222,11111222' 
TCOON,ioos:station:TCOON:031:1,2008-11-06T02:00:00Z,28.4073,-96.7122,0.0,5.1,118.0,6.1,'11111222,11111222,11111222' 
TCOON,ioos:station:TCOON:031:1,2008-11-06T03:00:00Z,28.4073,-96.7122,0.0,6.4,120.0,7.6,'11111222,11111222,11111222' 
TCOON,ioos:station:TCOON:031:1,2008-11-06T04:00:00Z,28.4073,-96.7122,0.0,7.8,121.0,8.8,'11111222,11111222,11111222' 
TCOON,ioos:station:TCOON:031:1,2008-11-06T05:00:00Z,28.4073,-96.7122,0.0,7.0,134.0,8.6,'11111222,11111222,11111222' 
TCOON,ioos:station:TCOON:031:1,2008-11-06T06:00:00Z,28.4073,-96.7122,0.0,6.6,134.0,7.9,'11111222,11111222,11111222' 
TCOON,ioos:station:TCOON:031:1,2008-11-06T07:00:00Z,28.4073,-96.7122,0.0,8.0,139.0,9.4,'11111222,11111222,11111222' 
TCOON,ioos:station:TCOON:031:1,2008-11-06T08:00:00Z,28.4073,-96.7122,0.0,7.8,139.0,8.9,'11111222,11111222,11111222' 
TCOON,ioos:station:TCOON:031:1,2008-11-06T09:00:00Z,28.4073,-96.7122,0.0,6.3,128.0,8.5,'11111222,11111222,11111222' 
TCOON,ioos:station:TCOON:031:1,2008-11-06T10:00:00Z,28.4073,-96.7122,0.0,5.8,137.0,7.6,'11111222,11111222,11111222' 
TCOON,ioos:station:TCOON:031:1,2008-11-06T11:00:00Z,28.4073,-96.7122,0.0,4.9,137.0,6.2,'11111222,11111222,11111222' 
TCOON,ioos:station:TCOON:031:1,2008-11-06T12:00:00Z,28.4073,-96.7122,0.0,5.1,132.0,6.6,'11111222,11111222,11111222' 
TCOON,ioos:station:TCOON:031:1,2008-11-06T13:00:00Z,28.4073,-96.7122,0.0,3.5,134.0,4.3,'11111222,11111222,11111222' 
TCOON,ioos:station:TCOON:031:1,2008-11-06T14:00:00Z,28.4073,-96.7122,0.0,4.2,140.0,5.3,'11111222,11111222,11111222' 
TCOON,ioos:station:TCOON:031:1,2008-11-06T15:00:00Z,28.4073,-96.7122,0.0,0.3,214.0,0.3,'11111222,11111222,11111222' 
TCOON,ioos:station:TCOON:031:1,2008-11-06T16:00:00Z,28.4073,-96.7122,0.0,3.3,140.0,3.9,'11111222,11111222,11111222' 
TCOON,ioos:station:TCOON:031:1,2008-11-06T17:00:00Z,28.4073,-96.7122,0.0,3.8,145.0,4.3,'11111222,11111222,11111222' 
TCOON,ioos:station:TCOON:031:1,2008-11-06T18:00:00Z,28.4073,-96.7122,0.0,4.1,140.0,5.0,'11111222,11111222,11111222' 
TCOON,ioos:station:TCOON:031:1,2008-11-06T19:00:00Z,28.4073,-96.7122,0.0,5.9,142.0,6.6,'11111222,11111222,11111222' 
TCOON,ioos:station:TCOON:031:1,2008-11-06T20:00:00Z,28.4073,-96.7122,0.0,6.7,135.0,7.9,'11111222,11111222,11111222' 
TCOON,ioos:station:TCOON:031:1,2008-11-06T21:00:00Z,28.4073,-96.7122,0.0,6.0,137.0,7.2,'11111222,11111222,11111222' 
TCOON,ioos:station:TCOON:031:1,2008-11-06T22:00:00Z,28.4073,-96.7122,0.0,5.0,138.0,5.9,'11111222,11111222,11111222' 
TCOON,ioos:station:TCOON:031:1,2008-11-06T23:00:00Z,28.4073,-96.7122,0.0,2.3,27.0,2.7,'11111222,11111222,11111222' 
TCOON,ioos:station:TCOON:031:1,2008-11-07T00:00:00Z,28.4073,-96.7122,0.0,2.2,15.0,3.1,'11111222,11111222,11111222' 
TCOON,ioos:station:TCOON:031:1,2008-11-07T01:00:00Z,28.4073,-96.7122,0.0,2.0,6.0,2.9,'11111222,11111222,11111222' 
TCOON,ioos:station:TCOON:031:1,2008-11-07T02:00:00Z,28.4073,-96.7122,0.0,2.6,316.0,3.6,'11111222,11111222,11111222' 
TCOON,ioos:station:TCOON:031:1,2008-11-07T03:00:00Z,28.4073,-96.7122,0.0,2.8,322.0,4.5,'11111222,11111222,11111222' 
TCOON,ioos:station:TCOON:031:1,2008-11-07T04:00:00Z,28.4073,-96.7122,0.0,2.8,351.0,3.8,'11111222,11111222,11111222' 
TCOON,ioos:station:TCOON:031:1,2008-11-07T05:00:00Z,28.4073,-96.7122,0.0,3.7,10.0,4.4,'11111222,11111222,11111222' 
TCOON,ioos:station:TCOON:031:1,2008-11-07T06:00:00Z,28.4073,-96.7122,0.0,3.1,17.0,4.1,'11111222,11111222,11111222' 
TCOON,ioos:station:TCOON:031:1,2008-11-07T07:00:00Z,28.4073,-96.7122,0.0,2.5,6.0,3.6,'11111222,11111222,11111222' 
TCOON,ioos:station:TCOON:031:1,2008-11-07T08:00:00Z,28.4073,-96.7122,0.0,4.4,356.0,5.3,'11111222,11111222,11111222' 
TCOON,ioos:station:TCOON:031:1,2008-11-07T09:00:00Z,28.4073,-96.7122,0.0,3.7,12.0,5.1,'11111222,11111222,11111222' 
TCOON,ioos:station:TCOON:031:1,2008-11-07T10:00:00Z,28.4073,-96.7122,0.0,3.6,7.0,6.4,'11111222,11111222,11111222' 
TCOON,ioos:station:TCOON:031:1,2008-11-07T11:00:00Z,28.4073,-96.7122,0.0,2.9,4.0,4.2,'11111222,11111222,11111222' 
TCOON,ioos:station:TCOON:031:1,2008-11-07T12:00:00Z,28.4073,-96.7122,0.0,3.6,346.0,6.9,'11111222,11111222,11111222' 
TCOON,ioos:station:TCOON:031:1,2008-11-07T13:00:00Z,28.4073,-96.7122,0.0,5.1,6.0,6.1,'11111222,11111222,11111222' 
TCOON,ioos:station:TCOON:031:1,2008-11-07T14:00:00Z,28.4073,-96.7122,0.0,5.9,8.0,7.5,'11111222,11111222,11111222' 
TCOON,ioos:station:TCOON:031:1,2008-11-07T15:00:00Z,28.4073,-96.7122,0.0,5.7,10.0,7.6,'11111222,11111222,11111222' 
TCOON,ioos:station:TCOON:031:1,2008-11-07T16:00:00Z,28.4073,-96.7122,0.0,6.3,28.0,7.6,'11111222,11111222,11111222' 
TCOON,ioos:station:TCOON:031:1,2008-11-07T17:00:00Z,28.4073,-96.7122,0.0,5.8,40.0,7.7,'11111222,11111222,11111222' 
TCOON,ioos:station:TCOON:031:1,2008-11-07T18:00:00Z,28.4073,-96.7122,0.0,5.5,27.0,10.1,'11111222,11111222,11111222' 
TCOON,ioos:station:TCOON:031:1,2008-11-07T19:00:00Z,28.4073,-96.7122,0.0,6.2,33.0,9.1,'11111222,11111222,11111222' 
TCOON,ioos:station:TCOON:031:1,2008-11-07T20:00:00Z,28.4073,-96.7122,0.0,6.4,14.0,9.3,'11111222,11111222,11111222' 
TCOON,ioos:station:TCOON:031:1,2008-11-07T21:00:00Z,28.4073,-96.7122,0.0,4.8,49.0,7.5,'11111222,11111222,11111222' 
TCOON,ioos:station:TCOON:031:1,2008-11-07T22:00:00Z,28.4073,-96.7122,0.0,5.3,29.0,5.8,'11111222,11111222,11111222' 
TCOON,ioos:station:TCOON:031:1,2008-11-07T23:00:00Z,28.4073,-96.7122,0.0,3.2,53.0,5.0,'11111222,11111222,11111222' 
TCOON,ioos:station:TCOON:031:1,2008-11-08T00:00:00Z,28.4073,-96.7122,0.0,1.2,56.0,1.5,'11111222,11111222,11111222' 
TCOON,ioos:station:TCOON:031:1,2008-11-08T01:00:00Z,28.4073,-96.7122,0.0,1.4,62.0,1.9,'11111222,11111222,11111222' 
TCOON,ioos:station:TCOON:031:1,2008-11-08T02:00:00Z,28.4073,-96.7122,0.0,1.4,58.0,2.1,'11111222,11111222,11111222' 
TCOON,ioos:station:TCOON:031:1,2008-11-08T03:00:00Z,28.4073,-96.7122,0.0,1.6,50.0,2.2,'11111222,11111222,11111222' 
TCOON,ioos:station:TCOON:031:1,2008-11-08T04:00:00Z,28.4073,-96.7122,0.0,2.4,28.0,2.6,'11111222,11111222,11111222' 
TCOON,ioos:station:TCOON:031:1,2008-11-08T05:00:00Z,28.4073,-96.7122,0.0,2.3,30.0,2.6,'11111222,11111222,11111222' 
TCOON,ioos:station:TCOON:031:1,2008-11-08T06:00:00Z,28.4073,-96.7122,0.0,2.0,24.0,2.8,'11111222,11111222,11111222' 
TCOON,ioos:station:TCOON:031:1,2008-11-08T07:00:00Z,28.4073,-96.7122,0.0,2.1,53.0,2.3,'11111222,11111222,11111222' 
TCOON,ioos:station:TCOON:031:1,2008-11-08T08:00:00Z,28.4073,-96.7122,0.0,2.3,45.0,2.8,'11111222,11111222,11111222' 
TCOON,ioos:station:TCOON:031:1,2008-11-08T09:00:00Z,28.4073,-96.7122,0.0,2.1,53.0,2.6,'11111222,11111222,11111222' 
TCOON,ioos:station:TCOON:031:1,2008-11-08T10:00:00Z,28.4073,-96.7122,0.0,1.7,43.0,1.9,'11111222,11111222,11111222' 
TCOON,ioos:station:TCOON:031:1,2008-11-08T11:00:00Z,28.4073,-96.7122,0.0,2.1,17.0,2.6,'11111222,11111222,11111222' 
TCOON,ioos:station:TCOON:031:1,2008-11-08T12:00:00Z,28.4073,-96.7122,0.0,2.7,7.0,3.0,'11111222,11111222,11111222' 
TCOON,ioos:station:TCOON:031:1,2008-11-08T13:00:00Z,28.4073,-96.7122,0.0,2.5,8.0,3.3,'11111222,11111222,11111222' 
TCOON,ioos:station:TCOON:031:1,2008-11-08T14:00:00Z,28.4073,-96.7122,0.0,2.8,6.0,4.0,'11111222,11111222,11111222' 
TCOON,ioos:station:TCOON:031:1,2008-11-08T15:00:00Z,28.4073,-96.7122,0.0,2.3,5.0,3.1,'11111222,11111222,11111222' 
TCOON,ioos:station:TCOON:031:1,2008-11-08T16:00:00Z,28.4073,-96.7122,0.0,1.2,49.0,2.8,'11111222,11111222,11111222' 
TCOON,ioos:station:TCOON:031:1,2008-11-08T17:00:00Z,28.4073,-96.7122,0.0,3.8,256.0,5.2,'11111222,11111222,11111222' 
TCOON,ioos:station:TCOON:031:1,2008-11-08T18:00:00Z,28.4073,-96.7122,0.0,3.9,229.0,4.0,'11111222,11111222,11111222' 
TCOON,ioos:station:TCOON:031:1,2008-11-08T19:00:00Z,28.4073,-96.7122,0.0,4.2,192.0,4.5,'11111222,11111222,11111222' 
TCOON,ioos:station:TCOON:031:1,2008-11-08T20:00:00Z,28.4073,-96.7122,0.0,3.6,156.0,4.1,'11111222,11111222,11111222' 
TCOON,ioos:station:TCOON:031:1,2008-11-08T21:00:00Z,28.4073,-96.7122,0.0,4.9,87.0,6.7,'11111222,11111222,11111222' 
TCOON,ioos:station:TCOON:031:1,2008-11-08T22:00:00Z,28.4073,-96.7122,0.0,5.1,105.0,6.1,'11111222,11111222,11111222' 
TCOON,ioos:station:TCOON:031:1,2008-11-08T23:00:00Z,28.4073,-96.7122,0.0,4.7,117.0,5.7,'11111222,11111222,11111222' 
TCOON,ioos:station:TCOON:031:1,2008-11-09T00:00:00Z,28.4073,-96.7122,0.0,2.7,107.0,3.2,'11111222,11111222,11111222' 
TCOON,ioos:station:TCOON:031:1,2008-11-09T01:00:00Z,28.4073,-96.7122,0.0,1.6,95.0,2.4,'11111222,11111222,11111222' 
TCOON,ioos:station:TCOON:031:1,2008-11-09T02:00:00Z,28.4073,-96.7122,0.0,1.4,104.0,2.0,'11111222,11111222,11111222' 
TCOON,ioos:station:TCOON:031:1,2008-11-09T03:00:00Z,28.4073,-96.7122,0.0,1.6,119.0,1.8,'11111222,11111222,11111222' 
TCOON,ioos:station:TCOON:031:1,2008-11-09T04:00:00Z,28.4073,-96.7122,0.0,1.2,113.0,2.2,'11111222,11111222,11111222' 
TCOON,ioos:station:TCOON:031:1,2008-11-09T05:00:00Z,28.4073,-96.7122,0.0,1.4,102.0,1.7,'11111222,11111222,11111222' 
TCOON,ioos:station:TCOON:031:1,2008-11-09T06:00:00Z,28.4073,-96.7122,0.0,1.6,104.0,1.9,'11111222,11111222,11111222' 
TCOON,ioos:station:TCOON:031:1,2008-11-09T07:00:00Z,28.4073,-96.7122,0.0,0.9,100.0,1.2,'11111222,11111222,11111222' 
TCOON,ioos:station:TCOON:031:1,2008-11-09T08:00:00Z,28.4073,-96.7122,0.0,1.5,83.0,1.7,'11111222,11111222,11111222' 
TCOON,ioos:station:TCOON:031:1,2008-11-09T09:00:00Z,28.4073,-96.7122,0.0,2.4,78.0,2.6,'11111222,11111222,11111222' 
TCOON,ioos:station:TCOON:031:1,2008-11-09T10:00:00Z,28.4073,-96.7122,0.0,2.6,65.0,3.0,'11111222,11111222,11111222' 
TCOON,ioos:station:TCOON:031:1,2008-11-09T11:00:00Z,28.4073,-96.7122,0.0,2.1,60.0,2.6,'11111222,11111222,11111222' 
TCOON,ioos:station:TCOON:031:1,2008-11-09T12:00:00Z,28.4073,-96.7122,0.0,1.9,53.0,2.0,'11111222,11111222,11111222' 
TCOON,ioos:station:TCOON:031:1,2008-11-09T13:00:00Z,28.4073,-96.7122,0.0,2.0,52.0,2.5,'11111222,11111222,11111222' 